Location: Tierra Monte Subdivision
(35.2092°N, 106.4864°W)
Time: 00:33:40
(UTC+00:00)

Cosmos 1745 Rocket - Pass Details

Date: 30 March 2020
Orbit: 952 x 999 km, 83.0° (Epoch: 02 June)

Event Time Altitude Azimuth Distance (km) Brightness Sun altitude
Rises 02:06:21 0° 356° (N) 3,708 7.2 -9.1°
Reaches altitude 10° 02:08:55 10° 358° (N) 2,750 6.5 -9.6°
Maximum altitude 02:15:12 71° 83° (E) 1,030 4.0 -10.8°
Drops below altitude 10° 02:21:22 10° 167° (SSE) 2,701 6.1 -12.1°
Sets 02:23:52 0° 169° (S) 3,638 6.7 -12.6°
